Location: Beneden-Haastrecht
(52.0012°N, 4.7557°E)
Time: 02:53:59
(UTC+00:00)

Cosmos 1606 Rocket - Pass Details

Date: 24 October 2020
Orbit: 604 x 631 km, 82.5° (Epoch: 24 November)

Event Time Altitude Azimuth Distance (km) Brightness Sun altitude
Rises 17:54:20 0° 190° (S) 2,862 7.1 -14.0°
Reaches altitude 10° 17:56:32 10° 190° (S) 1,967 6.3 -14.3°
Maximum altitude 18:00:54 87° 280° (W) 625 3.5 -15.0°
Drops below altitude 10° 18:05:21 10° 10° (N) 2,001 6.1 -15.7°
Sets 18:07:36 0° 11° (N) 2,916 6.9 -16.0°
